Location: Newark
(51.3318°N, 0.0053°E)
Time: 02:43:10
(UTC+00:00)

Envisat - Pass Details

Date: 21 January 2022
Orbit: 764 x 765 km, 98.2° (Epoch: 28 May)

Event Time Altitude Azimuth Distance (km) Brightness Sun altitude
Rises 04:04:05 0° 22° (NNE) 3,243 6.6 -35.1°
Reaches altitude 10° 04:06:44 10° 34° (NE) 2,312 5.9 -34.7°
Maximum altitude 04:11:05 28° 93° (E) 1,417 4.8 -34.1°
Drops below altitude 10° 04:15:24 10° 152° (SSE) 2,297 5.6 -33.4°
Sets 04:18:00 0° 164° (SSE) 3,218 6.3 -33.0°
